Flag for U.S.A. Weather past 2 weeks in San Jose, California, U.S.A.

Now
62 °F

Scattered clouds.


Feels Like: 62 °F
Forecast: 50 / 69 °F
Wind: 13 mph from Northwest

Location: San Jose International Airport


UV Index: 5 (Moderate)

Visibility: 10 mi


Pressure: 29.91 "Hg

Humidity: 60%

Dew point: 48 °F

Location of San JoseLocation

Historic Weather in San Jose

°F

San Jose temperature yesterday

Maximum temperature yesterday: 72 °F (at 1:53 PM)
Minimum temperature yesterday: 53 °F (at 6:53 AM)
Average temperature yesterday: 61 °F

Past Weeks' High & Low Weather Summary

 TemperatureHumidityPressure
High86 °F (Apr 8, 2:53 PM)96% (Apr 4, 8:53 AM)30.23 "Hg (Apr 4, 8:53 AM)
Low46 °F (Apr 6, 5:53 AM)23% (Apr 10, 2:53 PM)29.80 "Hg (Apr 17, 5:53 AM)
Average61 °F67%30.00 "Hg
* Reported Apr 3 6:53 PM — Apr 18 6:53 PM, San Jose, Weather by CustomWeather, © 2014

Note: Actual official high and low records may vary slightly from our data, if they occured in-between our weather recording intervals... More about our weather records

Advertising

Historic Weather Conditions — Data for Previous 24 hours

 ConditionsComfort  
Time TempWeatherWind HumidityBarometerVisibility
6:53 PM
Apr 18
62 °FScattered clouds.13 mph60%29.91 "Hg10 mi
5:53 PM66 °FScattered clouds.9 mph52%29.89 "Hg10 mi
4:53 PM64 °FBroken clouds.18 mph61%29.89 "Hg10 mi
3:53 PM65 °FBroken clouds.15 mph59%29.88 "Hg10 mi
2:53 PM68 °FBroken clouds.12 mph55%29.89 "Hg10 mi
1:53 PM69 °FBroken clouds.13 mph55%29.89 "Hg10 mi
12:53 PM70 °FScattered clouds.8 mph42%29.90 "Hg10 mi
11:53 AM68 °FBroken clouds.8 mph45%29.91 "Hg10 mi
10:53 AM64 °FPassing clouds.No wind56%29.93 "Hg10 mi
9:53 AM59 °FPassing clouds.No wind67%29.93 "Hg10 mi
8:53 AM57 °FScattered clouds.No wind74%29.93 "Hg10 mi
7:53 AM55 °FScattered clouds.5 mph80%29.93 "Hg10 mi
6:53 AM53 °FPassing clouds.3 mph83%29.91 "Hg10 mi
5:53 AM53 °FPassing clouds.3 mph86%29.88 "Hg10 mi
4:53 AM53 °FClear.No wind86%29.88 "Hg10 mi
3:53 AM54 °FClear.No wind80%29.88 "Hg10 mi
2:53 AM54 °FClear.6 mph77%29.88 "Hg10 mi
1:53 AM55 °FClear.8 mph74%29.88 "Hg10 mi
12:53 AM57 °FClear.12 mph67%29.89 "Hg10 mi
11:53 PM
Apr 17
58 °FClear.6 mph70%29.88 "Hg10 mi
10:53 PM58 °FClear.3 mph67%29.88 "Hg10 mi
9:53 PM60 °FClear.6 mph60%29.88 "Hg10 mi
8:53 PM60 °FClear.8 mph65%29.87 "Hg10 mi
7:53 PM62 °FScattered clouds.7 mph60%29.85 "Hg10 mi
Weather by CustomWeather, © 2014

See weather overview